VE7SDJ-1 Victoria BC CA current weather conditions

sailwx.info

Wind from 234 at 3 knots gusting 9

Air temperature 15.6° C
Dewpoint 13.0° C

Last reported at 2020-Jul-09 18:55 UTC.
Time now 2020-Jul-10 18:35 UTC

Location: N 48°28' W 123°33'.
View on Google Maps.

See reports from other nearby stations

  
Tides and Currents Weather Stations Pressure Air Temp Water Temp Dewpoint Dewpoint Depression Visibility Wind Speed Wind Dir Waves Ship Positions
date/time (UTC)wind fromknots sea level pressurealtimeterstation pressurevisibilityair tempwater tempwave heightnotes
2020-Jul-09 18:55 234 3 gusting 9 15.6
2020-Jul-09 18:40 231 4 gusting 6 15.6
2020-Jul-09 17:25 101 0 gusting 1 14.4
2020-Jul-09 17:10 124 0 gusting 1 14.4
2020-Jul-09 16:55 113 0 gusting 2 14.4
2020-Jul-09 16:40 117 14.4
2020-Jul-09 16:25 094 0 gusting 2 14.4
2020-Jul-09 16:10 105 14.4
2020-Jul-09 15:55 102 0 gusting 1 13.9
2020-Jul-09 15:40 112 13.9
2020-Jul-09 15:25 101 0 gusting 1 13.9
2020-Jul-09 15:10 115 1 gusting 2 13.9
2020-Jul-09 14:55 284 13.9
2020-Jul-09 14:40 284 13.9
2020-Jul-09 14:25 284 13.3
2020-Jul-09 14:10 284 13.3
2020-Jul-09 13:55 284 13.3
2020-Jul-09 13:40 284 13.3
2020-Jul-09 13:25 284 13.3
2020-Jul-09 13:10 284 0 gusting 0 13.3
2020-Jul-09 12:55 284 13.3
2020-Jul-09 12:40 284 0 gusting 1 13.3
2020-Jul-09 12:25 284 13.3
2020-Jul-09 12:10 284 13.3
2020-Jul-09 11:55 284 13.3
2020-Jul-09 11:40 284 13.3
2020-Jul-09 11:25 284 13.3
2020-Jul-09 11:10 284 13.3
2020-Jul-09 10:55 284 13.3
2020-Jul-09 10:40 284 13.3
2020-Jul-09 10:25 284 13.3
2020-Jul-09 10:10 284 0 gusting 0 13.3
2020-Jul-09 09:55 284 0 gusting 1 13.3
2020-Jul-09 09:40 323 13.3
2020-Jul-09 09:25 323 13.3
2020-Jul-09 09:10 323 0 gusting 1 13.3
2020-Jul-09 08:55 323 13.9
2020-Jul-09 08:41 323 13.9
2020-Jul-09 08:25 323 13.9
2020-Jul-09 08:10 323 0 gusting 1 13.9
2020-Jul-09 07:55 323 13.9
2020-Jul-09 07:40 323 0 gusting 1 13.9
2020-Jul-09 07:25 304 0 gusting 1 13.9
2020-Jul-09 07:10 304 0 gusting 1 14.4
2020-Jul-09 06:55 225 14.4
2020-Jul-09 06:40 194 0 gusting 2 14.4
2020-Jul-09 06:25 182 1 gusting 2 15.0
2020-Jul-09 06:10 207 2 gusting 6 15.0
2020-Jul-09 05:55 221 2 gusting 4 15.0
2020-Jul-09 05:40 207 2 gusting 5 15.0
2020-Jul-09 05:25 215 2 gusting 5 15.0
2020-Jul-09 05:10 246 1 gusting 6 15.6
2020-Jul-09 04:55 257 3 gusting 6 15.6
2020-Jul-09 04:40 243 3 gusting 6 15.6
2020-Jul-09 04:25 249 2 gusting 10 16.1
2020-Jul-09 04:10 232 1 gusting 4 16.7
2020-Jul-09 03:55 260 3 gusting 6 16.7
2020-Jul-09 03:40 223 5 gusting 9 16.7
2020-Jul-09 03:25 253 3 gusting 9 16.7
2020-Jul-09 03:10 262 6 gusting 8 17.2
2020-Jul-09 02:55 273 3 gusting 9 17.2
2020-Jul-09 02:40 259 6 gusting 9 17.2
2020-Jul-09 02:25 251 4 gusting 8 17.8
2020-Jul-09 02:10 258 4 gusting 8 17.8
2020-Jul-09 01:55 186 4 gusting 11 17.8
2020-Jul-09 01:40 278 5 gusting 11 18.3
2020-Jul-09 01:25 251 2 gusting 10 18.3
2020-Jul-09 01:10 187 3 gusting 11 18.9
2020-Jul-09 00:55 225 5 gusting 9 18.3
2020-Jul-09 00:40 184 4 gusting 8 18.9
2020-Jul-09 00:25 176 5 gusting 9 19.4
2020-Jul-09 00:10 223 4 gusting 13 19.4
2020-Jul-08 23:55 158 6 gusting 13 19.4
2020-Jul-08 23:40 211 4 gusting 7 20.0
2020-Jul-08 23:25 150 5 gusting 10 20.0
2020-Jul-08 23:10 180 4 gusting 9 20.0
2020-Jul-08 22:55 240 3 gusting 8 21.1
2020-Jul-08 22:40 210 5 gusting 11 21.1
2020-Jul-08 22:25 232 3 gusting 7 21.1
2020-Jul-08 22:10 210 5 gusting 8 21.1
2020-Jul-08 21:55 186 6 gusting 11 20.6
2020-Jul-08 21:40 093 5 gusting 10 20.0
2020-Jul-08 21:25 180 7 gusting 12 20.0
2020-Jul-08 21:10 148 5 gusting 12 20.6
2020-Jul-08 20:55 188 4 gusting 8 20.0
2020-Jul-08 20:40 236 3 gusting 14 19.4
2020-Jul-08 20:25 278 5 gusting 15 20.0
2020-Jul-08 20:10 168 2 gusting 7 20.0
2020-Jul-08 19:55 209 3 gusting 11 19.4
2020-Jul-08 19:40 200 4 gusting 9 18.3
2020-Jul-08 19:25 139 2 gusting 13 18.3
2020-Jul-08 19:10 207 2 gusting 5 18.3
2020-Jul-08 18:55 132 1 gusting 7 18.3
2020-Jul-08 18:40 185 2 gusting 8 17.8
2020-Jul-08 18:25 183 3 gusting 6 17.8
2020-Jul-08 18:10 170 3 gusting 7 17.8